Regional Weather Roundup
Issued by NWS

Home | Current Version | Previous Version | Text Only | Print | Product List | Glossary Off
Versions: 1 2 3 4 5 6 7 8 9 10 11 12 13 14 15 16 17 18 19 20 21 22 23 24 25 26 27 28 29 30 31 32 33 34 35 36 37 38 39 40 41 42 43 44 45 46 47 48 49 50

000
ASUS43 KMKX 301221
RWRWI

WISCONSIN REGIONAL WEATHER ROUNDUP
NATIONAL WEATHER SERVICE MILWAUKEE/SULLIVAN WI
700 AM CDT MON MAY 30 2016

NOTE: "FAIR" INDICATES FEW OR NO CLOUDS BELOW 12,000 FEET WITH NO
SIGNIFICANT WEATHER AND/OR OBSTRUCTIONS TO VISIBILITY.

WIZ001-002-006>008-014>016-023>028-301300-
NORTHWEST WISCONSIN

CITY           SKY/WX    TMP DP  RH WIND       PRES   REMARKS
SUPERIOR ARPT  SUNNY     54  52  94 SW5       29.98S
6HR MIN TEMP:  48; 6HR MAX TEMP:  54;

ASHLAND        SUNNY     58  51  78 SW6       29.98R
6HR MIN TEMP:  50; 6HR MAX TEMP:  58;

HAYWARD        MOSUNNY   50  48  93 CALM      30.01S
6HR MIN TEMP:  44; 6HR MAX TEMP:  52;

SIREN          SUNNY     53  50  92 CALM      30.00S
6HR MIN TEMP:  46; 6HR MAX TEMP:  55;

CUMBERLAND     SUNNY     54  52  94 CALM      30.01S FOG
RICE LAKE      SUNNY     55  54  94 CALM      30.03S
6HR MIN TEMP:  52; 6HR MAX TEMP:  58;

CHETEK         SUNNY     54  54 100 CALM      30.02S
6HR MIN TEMP:  49; 6HR MAX TEMP:  58;

LADYSMITH      SUNNY     55  54  97 CALM      30.03S
6HR MIN TEMP:  47; 6HR MAX TEMP:  57;

EAU CLAIRE     SUNNY     59  57  93 CALM      30.00F
6HR MIN TEMP:  53; 6HR MAX TEMP:  61;

MENOMONIE      CLOUDY    57  56  95 CALM      30.01F FOG
6HR MIN TEMP:  53; 6HR MAX TEMP:  60;

NEW RICHMOND   CLOUDY    57  57 100 CALM      30.02R FOG
6HR MIN TEMP:  52; 6HR MAX TEMP:  58;

OSCEOLA        MOSUNNY   55  55 100 CALM      30.03S
6HR MIN TEMP:  50; 6HR MAX TEMP:  56;

$$

WIZ003>005-009-010-017-018-301300-
NORTH CENTRAL WISCONSIN

CITY           SKY/WX    TMP DP  RH WIND       PRES   REMARKS
MANITOWISH WTR NOT AVBL
ARBOR VITAE    SUNNY     57  54  90 CALM      30.00R
6HR MIN TEMP:  52; 6HR MAX TEMP:  57;

WOODRUFF       SUNNY     57  54  90 CALM      30.00R
6HR MIN TEMP:  52; 6HR MAX TEMP:  57;

RHINELANDER    SUNNY     57  53  86 W8        30.01R
6HR MIN TEMP:  47; 6HR MAX TEMP:  57;

EAGLE RIVER      N/A     55  55 100 W6        29.99R
LAND O LAKES   SUNNY     56  55  96 W3        30.00R
6HR MIN TEMP:  48; 6HR MAX TEMP:  56; 6HR PCP:  0.01;

PHILLIPS       SUNNY     56  53  91 CALM      30.01S
6HR MIN TEMP:  47; 6HR MAX TEMP:  54;

TOMAHAWK       SUNNY     53  52  97 CALM      30.02R
6HR MIN TEMP:  46; 6HR MAX TEMP:  53;

MEDFORD        SUNNY     56  56  99 CALM      30.02R
6HR MIN TEMP:  51; 6HR MAX TEMP:  59;

MERRILL        SUNNY     55  55 100 CALM      30.02R
$$

WIZ029-030-035-036-043>047-301300-
CENTRAL WISCONSIN

CITY           SKY/WX    TMP DP  RH WIND       PRES   REMARKS
WAUSAU         SUNNY     61  56  83 NW5       30.00R
6HR MIN TEMP:  56; 6HR MAX TEMP:  63;

MOSINEE        SUNNY     57  57 100 W6        30.02R
MARSHFIELD     SUNNY     60  56  86 NW6       30.02R
6HR MIN TEMP:  55; 6HR MAX TEMP:  63;

STEVENS POINT  SUNNY     57  57 100 W3        30.02R
6HR MIN TEMP:  49; 6HR MAX TEMP:  62; 6HR PCP:  0.02;

WAUPACA        SUNNY     64  62  94 W3        30.01R
6HR MIN TEMP:  56; 6HR MAX TEMP:  62;

WAUTOMA        SUNNY    N/A N/A N/A SW3       30.02R
WISC RAPIDS    SUNNY     61  56  83 NW5       30.03R
6HR MIN TEMP:  54; 6HR MAX TEMP:  63;

CAMP DOUGLAS   SUNNY     61 N/A N/A CALM      30.02R
6HR MIN TEMP:  51; 6HR MAX TEMP:  60;

$$

WIZ011>013-019>022-031-037>040-048>050-301300-
NORTHEAST WISCONSIN

CITY           SKY/WX    TMP DP  RH WIND       PRES   REMARKS
ANTIGO         SUNNY     56  56  99 CALM      30.02R
6HR MIN TEMP:  48; 6HR MAX TEMP:  56;

SHAWANO        SUNNY     62  57  85 W6        30.00R
6HR MIN TEMP:  56; 6HR MAX TEMP:  61;

OCONTO         SUNNY    N/A N/A N/A W5        29.98R
STURGEON BAY   NOT AVBL
GREEN BAY      SUNNY     62  58  86 CALM      29.99R
6HR MIN TEMP:  57; 6HR MAX TEMP:  64;

MANITOWOC      SUNNY     65  58  78 W6        30.00R
6HR MIN TEMP:  61; 6HR MAX TEMP:  65;

APPLETON       MOSUNNY   61  59  94 W7        29.99R
CLINTONVILLE   SUNNY     61  55  82 W5        30.00R
OSHKOSH        SUNNY     64  58  80 W7        30.00R
6HR MIN TEMP:  60; 6HR MAX TEMP:  65;

$$

WIZ032>034-041-042-053>061-301300-
SOUTHWEST WISCONSIN

CITY           SKY/WX    TMP DP  RH WIND       PRES   REMARKS
LA CROSSE      FOG       60  59  96 SE6       30.02S VSB 1/4
6HR MIN TEMP:  56; 6HR MAX TEMP:  63;

SPARTA         SUNNY     54  53  97 CALM      30.03S
6HR MIN TEMP:  49; 6HR MAX TEMP:  56;

VIROQUA        CLOUDY    62  60  91 CALM      30.04S
6HR MIN TEMP:  58; 6HR MAX TEMP:  65;

BOSCOBEL       FOG       59  58  96 CALM      30.04R VSB<1/4
6HR MIN TEMP:  55; 6HR MAX TEMP:  59;

PRAIRIE DU CHI CLOUDY    59  56  92 CALM      30.04R
6HR MIN TEMP:  56; 6HR MAX TEMP:  60;

PLATTEVILLE    SUNNY     63  61  93 CALM      30.04R
6HR MIN TEMP:  59; 6HR MAX TEMP:  66;

$$

WIZ056-057-062-063-064-067-068-301300-
SOUTH CENTRAL WISCONSIN

CITY           SKY/WX    TMP DP  RH WIND       PRES   REMARKS
REEDSBURG      SUNNY     57  57 100 CALM      30.03S
6HR MIN TEMP:  55; 6HR MAX TEMP:  60;

BARABOO/DELLS  SUNNY     61  57  87 W3        30.02F
6HR MIN TEMP:  56; 6HR MAX TEMP:  62;

LONE ROCK      FOG       57  56  96 W7        30.04R VSB 1/4
6HR MIN TEMP:  56; 6HR MAX TEMP:  59;

MINERAL POINT  SUNNY     63  59  88 CALM      30.04R
MADISON        MOSUNNY   61  60  97 CALM      30.01S
6HR MIN TEMP:  56; 6HR MAX TEMP:  64;

MIDDLETON      SUNNY     64  61  91 CALM      30.03R
6HR MIN TEMP:  57; 6HR MAX TEMP:  64;

WATERTOWN      SUNNY     61  61 100 CALM      30.01S
6HR MIN TEMP:  54; 6HR MAX TEMP:  64;

MONROE         SUNNY     68  55  64 W6        30.04R
JANESVILLE     MOSUNNY   64  63  94 CALM      30.02R
$$

WIZ051-052-058>065-066-070>072-301300-
SOUTHEAST WISCONSIN

CITY           SKY/WX    TMP DP  RH WIND       PRES   REMARKS
MILWAUKEE      MOSUNNY   67  58  72 W7        30.01R
6HR MIN TEMP:  64; 6HR MAX TEMP:  69;

WAUKESHA       SUNNY     61  59  94 CALM      30.03R
MILWAUKEE/TIMM SUNNY     63  55  77 W5        30.02R
RACINE         SUNNY     66  58  75 W6        30.03R
6HR MIN TEMP:  62; 6HR MAX TEMP:  69;

BURLINGTON     SUNNY     61  59  94 CALM      30.02S
6HR MIN TEMP:  55; 6HR MAX TEMP:  61;

KENOSHA        SUNNY     64  59  83 W3        30.02R
6HR MIN TEMP:  57; 6HR MAX TEMP:  66;

FOND DU LAC    SUNNY     63  59  87 SW3       30.01R
6HR MIN TEMP:  57; 6HR MAX TEMP:  63;

SHEBOYGAN      SUNNY     63  59  87 W6        30.00R
6HR MIN TEMP:  55; 6HR MAX TEMP:  63;

WEST BEND      SUNNY     63  59  88 CALM      30.02R
JUNEAU         SUNNY     60  58  94 CALM      30.03S
6HR MIN TEMP:  55; 6HR MAX TEMP:  61;

$$

LSZ147-162-301300-
LAKE SUPERIOR

STATION/POSITION TIME  TEMP    WIND        PRES    WAVE
                       AIR SEA DIR/SP/G            HT/PER
                 (UTC) (F)     (DEG/KT/KT) (MB)    (FT/S)
W MID LAKE BUOY  1150   43 38  240/ 12/ 14 1013.3R   1/ 3
DEVILS ISLAND    1200   53     240/ 16/ 18 1014.3R
SAXON HARBOR     1100   57     210/  7/ 11 1013.9R
$$

LMZ867-665-643>646-301300-
LAKE MICHIGAN

STATION/POSITION TIME  TEMP    WIND        PRES    WAVE
                       AIR SEA DIR/SP/G            HT/PER
                 (UTC) (F)     (DEG/KT/KT) (MB)    (FT/S)
CHAMBERS ISLAND  1100   60     200/  5/  8 1014.6R
N MID LAKE BUOY  1150   52 48  230/  8/ 10 1013.9R   1/ 4
NORTHPORT PIER   1100   61     250/  4/  7 1013.9S
KEWAUNEE LAKESHO 1100   59     300/  5/  6 1014.3R
SHEBOYGAN LAKESH 1200   65     270/  9/ 10 1016.0R
PORT WASHINGTON  1100   65     290/  5/  8 1016.3R
S MID C1F1C2F2C3F3C4F4C5F5C6F6C7F7C8M1C9M2Ca!



USA.gov is the U.S. government's official web portal to all federal, state and local government web resources and services.